Orbital Elements at Epoch 2459200.5 (2020-Dec-17.0) TDB
Reference: JPL 19 (heliocentric ecliptic J2000)
Element | Value | Uncertainty (1-sigma) | Units |
e | .3591446319127908 | 4.8901e-08 | |
a | 2.772295255895208 | 1.5396e-08 | au |
q | 1.776640296663147 | 1.3424e-07 | au |
i | 16.80731498839812 | 5.497e-06 | deg |
node | 195.0329680388379 | 1.7382e-05 | deg |
peri | 219.5105496412979 | 1.8324e-05 | deg |
M | 201.3426415034666 | 9.4974e-06 | deg |
tp | 2459943.545431207514 (2022-Dec-30.04543121) | 4.9412e-05 | TDB |
period | 1686.00030764126 4.62 | 1.4045e-05 3.845e-08 | d yr |
n | .2135230927114394 | 1.7787e-09 | deg/d |
Q | 3.767950215127269 | 2.0925e-08 | au |
|
| | Orbit Determination Parameters
Additional Information
|